• en Suisse
  • Liste des pays
  • À 7 jours
  • Température de l'eau
  • Carte satellitaire
  • Carte météo
  • Widgets météo
  • user-avatar
    Se connecter

    Météo par heure à Sotnicyno

    Ce jour, 24 Mai, Jeudi

    Heure Température Précipitation Vent Pression Humidité
    00:00 +16°C° 0,5 mm 0 m/s 756 mmHg 92%
    01:00 +18°C° 0,6 mm 1 m/s 755 mmHg 93%
    02:00 +18°C° 0,6 mm 1 m/s 755 mmHg 94%
    03:00 +18°C° 0,6 mm 1 m/s 755 mmHg 95%
    04:00 +18°C° 1,2 mm 1 m/s 755 mmHg 96%
    05:00 +18°C° 1,2 mm 1 m/s 755 mmHg 96%
    06:00 +18°C° 1,2 mm 1 m/s 754 mmHg 96%
    07:00 +17°C° 0,8 mm 2 m/s 754 mmHg 95%
    08:00 +18°C° 0,8 mm 2 m/s 754 mmHg 93%
    09:00 +18°C° 0,8 mm 2 m/s 754 mmHg 92%
    10:00 +19°C° 0,8 mm 2 m/s 754 mmHg 90%
    11:00 +19°C° 0,8 mm 2 m/s 754 mmHg 88%
    12:00 +20°C° 0,8 mm 3 m/s 754 mmHg 86%
    13:00 +20°C° 0,6 mm 3 m/s 754 mmHg 86%
    14:00 +20°C° 0,6 mm 3 m/s 754 mmHg 85%
    15:00 +20°C° 0,6 mm 3 m/s 753 mmHg 84%
    16:00 +20°C° 0,4 mm 3 m/s 753 mmHg 85%
    17:00 +20°C° 0,4 mm 3 m/s 753 mmHg 85%
    18:00 +20°C° 0,4 mm 3 m/s 753 mmHg 86%
    19:00 +19°C° 0 mm 3 m/s 753 mmHg 87%
    20:00 +18°C° 0 mm 3 m/s 753 mmHg 89%
    21:00 +17°C° 0 mm 3 m/s 753 mmHg 90%
    22:00 +16°C° 0 mm 3 m/s 753 mmHg 89%
    23:00 +15°C° 0 mm 4 m/s 753 mmHg 88%

    Demain, 25 Mai, Vendredi

    Heure Température Précipitation Vent Pression Humidité
    00:00 +15°C° 0 mm 4 m/s 753 mmHg 87%
    01:00 +14°C° 0 mm 4 m/s 753 mmHg 87%
    02:00 +14°C° 0 mm 5 m/s 754 mmHg 86%
    03:00 +13°C° 0 mm 5 m/s 754 mmHg 86%
    04:00 +13°C° 0 mm 5 m/s 754 mmHg 85%
    05:00 +13°C° 0 mm 6 m/s 755 mmHg 83%
    06:00 +13°C° 0 mm 6 m/s 755 mmHg 82%
    07:00 +14°C° 0 mm 7 m/s 755 mmHg 75%
    08:00 +14°C° 0 mm 7 m/s 756 mmHg 67%
    09:00 +15°C° 0 mm 7 m/s 756 mmHg 60%
    10:00 +16°C° 0 mm 7 m/s 757 mmHg 56%
    11:00 +16°C° 0 mm 7 m/s 757 mmHg 53%
    12:00 +17°C° 0 mm 7 m/s 758 mmHg 49%
    13:00 +17°C° 0 mm 7 m/s 758 mmHg 49%
    14:00 +17°C° 0 mm 6 m/s 758 mmHg 48%
    15:00 +17°C° 0 mm 6 m/s 758 mmHg 48%
    16:00 +17°C° 0 mm 6 m/s 758 mmHg 51%
    17:00 +16°C° 0 mm 5 m/s 759 mmHg 54%
    18:00 +17°C° 0 mm 4 m/s 759 mmHg 57%
    19:00 +14°C° 0 mm 4 m/s 759 mmHg 60%
    20:00 +12°C° 0 mm 3 m/s 760 mmHg 63%
    21:00 +11°C° 0 mm 3 m/s 761 mmHg 67%
    22:00 +10°C° 0 mm 3 m/s 761 mmHg 69%
    23:00 +9°C° 0 mm 3 m/s 762 mmHg 71%

    Après-demain, 26 Mai, Samedi

    Heure Température Précipitation Vent Pression Humidité
    00:00 +8°C° 0 mm 2 m/s 762 mmHg 72%
    01:00 +8°C° 0 mm 2 m/s 763 mmHg 73%
    02:00 +7°C° 0 mm 2 m/s 763 mmHg 74%
    03:00 +7°C° 0 mm 2 m/s 763 mmHg 75%
    04:00 +7°C° 0 mm 2 m/s 764 mmHg 72%
    05:00 +8°C° 0 mm 2 m/s 764 mmHg 70%
    06:00 +9°C° 0 mm 2 m/s 765 mmHg 67%
    07:00 +10°C° 0 mm 3 m/s 765 mmHg 60%
    08:00 +12°C° 0 mm 3 m/s 765 mmHg 53%
    09:00 +14°C° 0 mm 3 m/s 766 mmHg 47%
    10:00 +16°C° 0 mm 3 m/s 766 mmHg 44%
    11:00 +17°C° 0 mm 3 m/s 766 mmHg 42%
    12:00 +18°C° 0 mm 3 m/s 766 mmHg 39%
    13:00 +18°C° 0 mm 3 m/s 766 mmHg 39%
    14:00 +19°C° 0 mm 2 m/s 765 mmHg 38%
    15:00 +19°C° 0 mm 2 m/s 765 mmHg 37%
    16:00 +20°C° 0 mm 1 m/s 765 mmHg 41%
    17:00 +20°C° 0 mm 1 m/s 765 mmHg 45%
    18:00 +20°C° 0 mm 1 m/s 765 mmHg 50%
    19:00 +18°C° 0 mm 1 m/s 765 mmHg 53%
    20:00 +15°C° 0 mm 1 m/s 765 mmHg 56%
    21:00 +12°C° 0 mm 1 m/s 765 mmHg 59%
    22:00 +12°C° 0 mm 1 m/s 765 mmHg 61%
    23:00 +10°C° 0 mm 2 m/s 765 mmHg 64%

    27 Mai, Dimanche

    Heure Température Précipitation Vent Pression Humidité
    00:00 +10°C° 0 mm 2 m/s 765 mmHg 66%
    01:00 +9°C° 0 mm 2 m/s 765 mmHg 69%
    02:00 +9°C° 0 mm 2 m/s 765 mmHg 71%
    03:00 +8°C° 0 mm 2 m/s 765 mmHg 74%
    04:00 +9°C° 0 mm 2 m/s 765 mmHg 73%
    05:00 +10°C° 0 mm 2 m/s 765 mmHg 73%
    06:00 +10°C° 0 mm 2 m/s 765 mmHg 73%
    07:00 +13°C° 0 mm 2 m/s 765 mmHg 68%
    08:00 +14°C° 0 mm 3 m/s 765 mmHg 62%
    09:00 +17°C° 0 mm 3 m/s 765 mmHg 57%
    10:00 +18°C° 0 mm 3 m/s 764 mmHg 54%
    11:00 +19°C° 0 mm 4 m/s 764 mmHg 52%
    12:00 +20°C° 0 mm 4 m/s 763 mmHg 49%
    13:00 +20°C° 0 mm 4 m/s 763 mmHg 49%
    14:00 +20°C° 0 mm 4 m/s 762 mmHg 49%
    15:00 +20°C° 0 mm 4 m/s 761 mmHg 49%
    16:00 +20°C° 0 mm 4 m/s 761 mmHg 53%
    17:00 +20°C° 0 mm 4 m/s 760 mmHg 57%
    18:00 +19°C° 0 mm 3 m/s 760 mmHg 61%
    19:00 +17°C° 0 mm 3 m/s 760 mmHg 66%
    20:00 +16°C° 0 mm 3 m/s 760 mmHg 72%
    21:00 +13°C° 0 mm 3 m/s 759 mmHg 77%
    22:00 +12°C° 0 mm 3 m/s 759 mmHg 78%
    23:00 +12°C° 0 mm 3 m/s 759 mmHg 79%

    28 Mai, Lundi

    Heure Température Précipitation Vent Pression Humidité
    00:00 +11°C° 0 mm 3 m/s 759 mmHg 80%
    01:00 +11°C° 0 mm 3 m/s 759 mmHg 80%
    02:00 +11°C° 0 mm 3 m/s 758 mmHg 80%
    03:00 +11°C° 0 mm 3 m/s 758 mmHg 81%
    04:00 +11°C° 0,1 mm 3 m/s 758 mmHg 82%
    05:00 +12°C° 0,1 mm 3 m/s 758 mmHg 83%
    06:00 +12°C° 0,1 mm 3 m/s 758 mmHg 84%
    07:00 +13°C° 0,1 mm 3 m/s 759 mmHg 83%
    08:00 +14°C° 0,1 mm 3 m/s 759 mmHg 81%
    09:00 +16°C° 0,1 mm 3 m/s 759 mmHg 80%
    10:00 +17°C° 0 mm 4 m/s 759 mmHg 70%
    11:00 +18°C° 0 mm 4 m/s 760 mmHg 60%
    12:00 +20°C° 0 mm 5 m/s 760 mmHg 50%
    13:00 +20°C° 0 mm 5 m/s 760 mmHg 48%
    14:00 +20°C° 0 mm 5 m/s 760 mmHg 46%
    15:00 +20°C° 0 mm 5 m/s 760 mmHg 43%
    16:00 +19°C° 0 mm 5 m/s 760 mmHg 46%
    17:00 +18°C° 0 mm 4 m/s 760 mmHg 49%
    18:00 +17°C° 0 mm 4 m/s 760 mmHg 52%
    19:00 +14°C° 0 mm 3 m/s 760 mmHg 56%
    20:00 +12°C° 0 mm 3 m/s 761 mmHg 59%
    21:00 +10°C° 0 mm 2 m/s 761 mmHg 63%
    22:00 +9°C° 0 mm 2 m/s 761 mmHg 64%
    23:00 +9°C° 0 mm 2 m/s 761 mmHg 65%

    29 Mai, Mardi

    Heure Température Précipitation Vent Pression Humidité
    00:00 +8°C° 0 mm 2 m/s 761 mmHg 66%
    01:00 +7°C° 0 mm 2 m/s 761 mmHg 67%
    02:00 +7°C° 0 mm 2 m/s 761 mmHg 68%
    03:00 +7°C° 0 mm 3 m/s 761 mmHg 69%
    04:00 +8°C° 0 mm 3 m/s 761 mmHg 67%
    05:00 +8°C° 0 mm 4 m/s 760 mmHg 65%
    06:00 +9°C° 0 mm 5 m/s 760 mmHg 63%
    07:00 +12°C° 0 mm 5 m/s 760 mmHg 60%
    08:00 +13°C° 0 mm 5 m/s 760 mmHg 57%
    09:00 +15°C° 0 mm 6 m/s 759 mmHg 54%
    10:00 +16°C° 0 mm 6 m/s 759 mmHg 52%
    11:00 +19°C° 0 mm 6 m/s 759 mmHg 51%
    12:00 +20°C° 0 mm 6 m/s 759 mmHg 49%
    13:00 +20°C° 0 mm 6 m/s 758 mmHg 49%
    14:00 +21°C° 0 mm 6 m/s 758 mmHg 48%
    15:00 +21°C° 0 mm 6 m/s 758 mmHg 48%
    16:00 +21°C° 0 mm 5 m/s 758 mmHg 52%
    17:00 +20°C° 0 mm 4 m/s 758 mmHg 55%
    18:00 +20°C° 0 mm 3 m/s 758 mmHg 59%
    19:00 +18°C° 0 mm 3 m/s 758 mmHg 64%
    20:00 +16°C° 0 mm 2 m/s 758 mmHg 70%
    21:00 +14°C° 0 mm 1 m/s 758 mmHg 75%
    22:00 +13°C° 0 mm 1 m/s 758 mmHg 77%
    23:00 +13°C° 0 mm 1 m/s 758 mmHg 78%
    Voir plus